Sisseton, SD

10:04 PM CDT on April 26, 2017 (GMT -0500)
Sisseton

Weather History for K8D3 - April, 2012

Change the Weather History Date:

Sunday, April 15, 2012

  Actual Average Record
Temperature  
Mean Temperature 45 °F 44 °F  
Max Temperature 52 °F 56 °F 86 °F (1976)
Min Temperature 37 °F 32 °F 14 °F (2014)
Degree Days  
Heating Degree Days 20 21  
Month to date heating degree days 269 364  
Since 1 July heating degree days 6212 7706  
Cooling Degree Days 0 0  
Month to date cooling degree days 0 0  
Year to date cooling degree days 7 0  
Moisture  
Dew Point 43 °F    
Average Humidity 91    
Maximum Humidity 100    
Minimum Humidity 82    
Precipitation  
Precipitation 2.87 in 0.06 in 2.87 in (2012)
Month to date precipitation 3.61 0.76  
Year to date precipitation 6.23 2.74  
Snow  
Snow 0.00 in - - ()
Month to date snowfall 0.0  
Since 1 July snowfall 20.9  
Snow Depth 0.00 in    
Sea Level Pressure  
Sea Level Pressure 29.50 in    
Wind  
Wind Speed 29 mph (NE)    
Max Wind Speed 47 mph    
Max Gust Speed 60 mph    
T = Trace of Precipitation, MM = Missing Value Source: NWS Daily Summary

Daily Weather History Graph

Daily Weather History Graph

Search for Another Location

Airport or City:

Trip Planner

Search our weather history database for the weather conditions in past years. The results will help you decide how hot, cold, wet, or windy it might be!

Date:

Astronomy

Apr. 15, 2012 Rise Set
Actual Time 6:41 AM CDT 8:15 PM CDT
Civil Twilight 6:10 AM CDT 8:46 PM CDT
Nautical Twilight 5:32 AM CDT 9:24 PM CDT
Astronomical Twilight 4:51 AM CDT 10:05 PM CDT
Moon 3:55 AM CDT (4/15) 2:56 PM CDT (4/15)
Length of Visible Light 14h 36m
Length of Day
13h 33m
Waning Crescent, 27% of the Moon is Illuminated
Apr 15
Waning Crescent
Apr 21
New
Apr 29
First Quarter
May 5
Full
May 12
Last Quarter

Hourly Weather History & Observations

Time (CDT) Temp. Windchill Dew Point Humidity Pressure Visibility Wind Dir Wind Speed Gust Speed Precip Events Conditions
12:56 AM 52.0 °F - 46.0 °F 80% 29.55 in - ENE 13.8 mph - 0.07 in   Unknown
1:56 AM 51.1 °F - 46.9 °F 86% 29.50 in - ENE 15.0 mph - 0.09 in   Unknown
2:56 AM 50.0 °F - 46.0 °F 86% 29.49 in - ENE 19.6 mph 24.2 mph 0.10 in   Unknown
3:56 AM 48.9 °F - 46.0 °F 90% 29.48 in - ENE 24.2 mph 29.9 mph 0.11 in   Unknown
4:56 AM 48.9 °F - 46.0 °F 90% 29.46 in - ENE 28.8 mph 36.8 mph 0.16 in   Unknown
5:56 AM 48.0 °F - 45.0 °F 89% 29.40 in - NE 27.6 mph 39.1 mph 0.17 in   Unknown
6:56 AM 48.0 °F - 46.0 °F 93% 29.44 in - ENE 29.9 mph 38.0 mph 0.21 in   Unknown
7:56 AM 46.9 °F - 46.0 °F 97% 29.42 in - ENE 33.4 mph 41.4 mph 0.08 in   Unknown
8:56 AM 46.9 °F - 46.0 °F 97% 29.46 in - NE 23.0 mph 36.8 mph 0.08 in   Unknown
9:56 AM 46.9 °F - 45.0 °F 93% 29.48 in - NE 26.5 mph 34.5 mph 0.04 in   Unknown
10:56 AM 46.0 °F 37.6 °F 45.0 °F 96% 29.50 in - NE 24.2 mph 38.0 mph 0.10 in   Unknown
11:56 AM 46.0 °F 37.4 °F 43.0 °F 89% 29.52 in - NNE 25.3 mph 29.9 mph 0.03 in   Unknown
12:56 PM 45.0 °F 36.2 °F 41.0 °F 86% 29.51 in - NNE 24.2 mph 32.2 mph 0.01 in   Unknown
1:56 PM 45.0 °F 35.4 °F 43.0 °F 93% 29.49 in - NE 28.8 mph 41.4 mph 0.11 in   Unknown
2:56 PM 45.0 °F 35.8 °F 43.0 °F 93% 29.47 in - NNE 26.5 mph 39.1 mph 0.19 in   Unknown
3:56 PM 45.0 °F 36.6 °F 42.1 °F 90% 29.49 in - NNE 21.9 mph 28.8 mph 0.15 in   Unknown
4:56 PM 44.1 °F 31.9 °F 41.0 °F 89% 29.48 in - NE 46.0 mph 58.7 mph 0.07 in   Unknown
5:56 PM 43.0 °F 32.2 °F 39.0 °F 86% 29.53 in - NE 32.2 mph 46.0 mph 0.23 in   Unknown
6:56 PM 42.1 °F 30.6 °F 39.0 °F 89% 29.54 in - NE 34.5 mph 42.6 mph 0.24 in   Unknown
7:56 PM 42.1 °F 31.3 °F 37.9 °F 85% 29.55 in - NNE 29.9 mph 42.6 mph 0.14 in   Unknown
8:56 PM 42.1 °F 30.1 °F 39.0 °F 89% 29.55 in - NNE 38.0 mph 47.2 mph 0.14 in   Unknown
9:56 PM 42.1 °F 30.8 °F 39.0 °F 89% 29.58 in - North 33.4 mph 43.7 mph 0.22 in   Unknown
10:56 PM 41.0 °F 28.6 °F 37.0 °F 86% 29.60 in - North 38.0 mph 47.2 mph 0.10 in   Unknown
11:56 PM 39.0 °F 27.6 °F 36.0 °F 89% 29.62 in - North 27.6 mph 47.2 mph 0.10 in   Unknown